Voltar ao catálogo

STARLINK-1262

AtivoComunicaçõesVLEO
NORAD 45366·PAYLOAD·🇺🇸 United States

Lançado Mar 18, 2020 de Cape Canaveral Space Force Station

Loading…

Próximas Passagens (próximas 24 horas)

TLE

AtualizadoSource: CelesTrak SupGP

Época: Sep 14, 2026, 20:23 UTC

1 45366C 20019G   26257.84979167 -.00000863  00000+0 -19710-4 0  2576
2 45366  53.1503   0.3696 0001854  31.1297 279.2586 15.42294122    10

Acompanhe STARLINK-1262 em tempo real com AllMySat

Download on the App Store